Kezdőlap
METAR-TAF:

METAR-TAF

Repülőterek :

Dodge Center Airport (Dodge Center Municipal)

Dodge Center, Minnesota, Amerikai Egyesült Államok

földrajzi szélesség: 44-01-05N, földrajzi hosszúság: 092-49-53W, magasság: 398 m

Jelenlegi meteorológiai megfigyelések

A jelentés 16 perccel ezelõtt készült, 19:36 UTC
Déli szél 11 kt
Hőmérséklet 0°C
Páratartalom 80%
Légköri nyomás 1015 hPa
Látótávolság: 16.1 km
Derült ég

METAR: KTOB 221936Z AUTO 17011KT 10SM CLR 00/M03 A2996 RMK AO2

Idő: 13:52 (19:52 UTC)


TAF: hiányzik

Meteorológiai megfigyelések és előrejelzések több, mint 4000 repülőtéren (METAR és TAF jelentéseket).

A térképen piros és sárga pontok jelzik az elérhető meteorológiai állomásokat.

Mozgassa az egeret a pont fölött, hogy megjelenjen az állomás neve.

Azután kattintson az időjárási megfigyelések és előrejelzések megtekintéséhez.

A térkép megváltoztatása: kattintson a fekete keresztel jelölt zöld gombra ráközelítéshez, a vonallal jelölt zöld gombra távolításhoz, vagy a zöld nyilakra a szomszédos térképek eléréséhez.


METAR-TAF: